Flag for Switzerland Weather past 2 weeks in Riehen, Basel-Stadt, Switzerland

Now
67 °F

Overcast.


Feels Like: 67 °F
Forecast: 56 / 73 °F
Wind: No wind

Location: Bale-Mulhouse

Current Time: Aug 29, 2014 at 12:20:58 PM

Latest Report: Aug 29, 2014 at 11:00 AM


Visibility: 11 mi

Pressure: 30.06 "Hg

Humidity: 84%

Dew point: 62 °F

Location of RiehenLocation

Historic Weather in Riehen — Graph

°F

Riehen temperature yesterday

Maximum temperature yesterday: 78 °F (at 6:00 PM)
Minimum temperature yesterday: 54 °F (at 7:00 AM)
Average temperature yesterday: 66 °F

Past Weeks' High & Low Weather Summary

 TemperatureHumidityPressure
High78 °F (Aug 28, 6:00 PM)98% (Aug 17, 6:00 AM)30.20 "Hg (Aug 17, 6:00 AM)
Low46 °F (Aug 25, 2:00 AM)41% (Aug 22, 2:00 PM)29.72 "Hg (Aug 26, 5:00 PM)
Average61 °F76%30.01 "Hg
* Reported Aug 14 11:00 AM — Aug 29 11:00 AM, Riehen, Weather by CustomWeather, © 2014

Note: Actual official high and low records may vary slightly from our data, if they occured in-between our weather recording intervals... More about our weather records

Advertising

Riehen weather history for previous 24 hours

 ConditionsComfort  
Time TempWeatherWind HumidityBarometerVisibility
11:00 AM
Aug 29
67 °FOvercast.No wind84%30.06 "Hg11 mi
10:00 AM64 °FLow clouds.2 mph94%30.06 "Hg9 mi
9:00 AM62 °FLight rain. Low clouds.5 mph95%30.06 "Hg9 mi
8:00 AM62 °FRain. Overcast.3 mph94%30.06 "Hg4 mi
7:00 AM62 °FLight rain. Overcast.2 mph91%30.05 "Hg6 mi
6:00 AM62 °FOvercast.3 mph89%30.04 "Hg9 mi
5:00 AM62 °FOvercast.5 mph90%30.04 "Hg9 mi
4:00 AM62 °FOvercast.6 mph91%30.04 "Hg31 mi
3:00 AM61 °FOvercast.6 mph91%30.04 "Hg25 mi
2:00 AM62 °FCool.6 mph91%30.05 "Hg25 mi
1:00 AM60 °FCool.3 mph91%30.06 "Hg37 mi
12:00 AM61 °FPassing clouds.2 mph89%30.06 "Hg31 mi
11:00 PM
Aug 28
62 °FPassing clouds.2 mph89%30.05 "Hg31 mi
10:00 PM64 °FPassing clouds.5 mph88%30.04 "Hg31 mi
9:00 PM65 °FPassing clouds.6 mph85%30.03 "Hg31 mi
8:00 PM73 °FScattered clouds.3 mph65%30.00 "Hg31 mi
7:00 PM76 °FOvercast.5 mph57%29.99 "Hg31 mi
6:00 PM78 °FWarm.6 mph52%29.99 "Hg37 mi
5:00 PM78 °FPartly sunny.7 mph50%29.99 "Hg31 mi
4:00 PM77 °FPartly sunny.7 mph51%30.00 "Hg31 mi
3:00 PM76 °FPartly sunny.7 mph50%30.01 "Hg31 mi
2:00 PM76 °FScattered clouds.3 mph51%30.02 "Hg31 mi
1:00 PM74 °FMild.6 mph51%30.03 "Hg25 mi
12:00 PM73 °FPartly sunny.2 mph61%30.04 "Hg31 mi
Weather by CustomWeather, © 2014

See weather overviewHow to use our weather pages